Location: Oregon Trail
(41.1872°N, 102.0741°W)
Time: 01:55:27
(UTC+00:00)

BREEZE-M DEB (TANK) - Pass Details

Date: 19 November 2019
Orbit: 313 x 16427 km, 49.5° (Epoch: 14 December)

Event Time Altitude Azimuth Distance (km) Brightness Sun altitude
Exits shadow 12:19:51 16° 301° (WNW) 4,557 6.3 -15.2°
Maximum altitude 12:28:49 80° 216° (SW) 917 3.3 -13.6°
Drops below altitude 10° 12:32:16 10° 129° (SE) 1,771 6.0 -12.9°
Sets 12:33:35 0° 128° (SE) 2,394 6.9 -12.7°
